Location: Ernsee
(50.8780°N, 12.0389°E)
Time: 10:50:25
(UTC+00:00)

Cosmos 2263 Rocket - Pass Details

Date: 20 January 2020
Orbit: 823 x 849 km, 71.0° (Epoch: 19 February)

Event Time Altitude Azimuth Distance (km) Brightness Sun altitude
Exits shadow 04:06:38 22° 354° (N) 1,754 3.8 -27.5°
Maximum altitude 04:09:41 39° 49° (NE) 1,251 3.4 -27.0°
Drops below altitude 10° 04:14:57 10° 117° (ESE) 2,462 5.4 -26.2°
Sets 04:17:33 0° 125° (SE) 3,397 6.2 -25.7°
